owner,sensor,date,latitude,longitude,vertical_datum,mass_concentration_of_oxygen_in_sea_water,qcFlag 
DISL,ioos:station:DISL:MHPA:1,2016-03-01T00:00:00Z,30.6671,-87.9365,1.251,8.27,1111122 
DISL,ioos:station:DISL:MHPA:1,2016-03-01T00:30:00Z,30.6671,-87.9365,1.231,8.19,1111122 
DISL,ioos:station:DISL:MHPA:1,2016-03-01T01:00:00Z,30.6671,-87.9365,1.204,8.48,1111122 
DISL,ioos:station:DISL:MHPA:1,2016-03-01T01:30:00Z,30.6671,-87.9365,1.179,8.63,1111122 
DISL,ioos:station:DISL:MHPA:1,2016-03-01T02:00:00Z,30.6671,-87.9365,1.154,8.53,1111122 
DISL,ioos:station:DISL:MHPA:1,2016-03-01T02:30:00Z,30.6671,-87.9365,1.132,8.42,1111122 
DISL,ioos:station:DISL:MHPA:1,2016-03-01T03:00:00Z,30.6671,-87.9365,1.108,8.37,1111122 
DISL,ioos:station:DISL:MHPA:1,2016-03-01T03:30:00Z,30.6671,-87.9365,1.09,8.33,1111122 
DISL,ioos:station:DISL:MHPA:1,2016-03-01T04:00:00Z,30.6671,-87.9365,1.07,8.31,1111122 
DISL,ioos:station:DISL:MHPA:1,2016-03-01T04:30:00Z,30.6671,-87.9365,1.054,8.25,1111122 
DISL,ioos:station:DISL:MHPA:1,2016-03-01T05:00:00Z,30.6671,-87.9365,1.041,8.66,1111122 
DISL,ioos:station:DISL:MHPA:1,2016-03-01T05:30:00Z,30.6671,-87.9365,1.028,8.24,1111122 
DISL,ioos:station:DISL:MHPA:1,2016-03-01T06:00:00Z,30.6671,-87.9365,1.019,8.42,1111122 
DISL,ioos:station:DISL:MHPA:1,2016-03-01T06:30:00Z,30.6671,-87.9365,1.011,8.68,1111122 
DISL,ioos:station:DISL:MHPA:1,2016-03-01T07:00:00Z,30.6671,-87.9365,1.002,8.69,1111122 
DISL,ioos:station:DISL:MHPA:1,2016-03-01T07:30:00Z,30.6671,-87.9365,0.995,8.3,1111122 
DISL,ioos:station:DISL:MHPA:1,2016-03-01T08:00:00Z,30.6671,-87.9365,0.993,8.0,1111122 
DISL,ioos:station:DISL:MHPA:1,2016-03-01T08:30:00Z,30.6671,-87.9365,0.993,7.95,1111122 
DISL,ioos:station:DISL:MHPA:1,2016-03-01T09:00:00Z,30.6671,-87.9365,0.99,8.06,1111122 
DISL,ioos:station:DISL:MHPA:1,2016-03-01T09:30:00Z,30.6671,-87.9365,0.987,8.08,1111122 
DISL,ioos:station:DISL:MHPA:1,2016-03-01T10:00:00Z,30.6671,-87.9365,0.994,8.02,1111122 
DISL,ioos:station:DISL:MHPA:1,2016-03-01T10:30:00Z,30.6671,-87.9365,1.001,7.92,1111122 
DISL,ioos:station:DISL:MHPA:1,2016-03-01T11:00:00Z,30.6671,-87.9365,1.004,7.95,1111122 
DISL,ioos:station:DISL:MHPA:1,2016-03-01T11:30:00Z,30.6671,-87.9365,1.011,7.89,1111122 
DISL,ioos:station:DISL:MHPA:1,2016-03-01T12:00:00Z,30.6671,-87.9365,1.022,7.9,1111122 
DISL,ioos:station:DISL:MHPA:1,2016-03-01T12:30:00Z,30.6671,-87.9365,1.032,7.94,1111122 
DISL,ioos:station:DISL:MHPA:1,2016-03-01T13:00:00Z,30.6671,-87.9365,1.039,7.97,1111122 
DISL,ioos:station:DISL:MHPA:1,2016-03-01T13:30:00Z,30.6671,-87.9365,1.057,7.87,1111122 
DISL,ioos:station:DISL:MHPA:1,2016-03-01T14:00:00Z,30.6671,-87.9365,1.084,7.93,1111122 
DISL,ioos:station:DISL:MHPA:1,2016-03-01T14:30:00Z,30.6671,-87.9365,1.095,8.09,1111122 
DISL,ioos:station:DISL:MHPA:1,2016-03-01T15:00:00Z,30.6671,-87.9365,1.122,7.91,1111122 
DISL,ioos:station:DISL:MHPA:1,2016-03-01T15:30:00Z,30.6671,-87.9365,1.155,8.07,1111122 
DISL,ioos:station:DISL:MHPA:1,2016-03-01T16:00:00Z,30.6671,-87.9365,1.171,8.11,1111122 
DISL,ioos:station:DISL:MHPA:1,2016-03-01T16:30:00Z,30.6671,-87.9365,1.194,8.16,1111122 
DISL,ioos:station:DISL:MHPA:1,2016-03-01T17:00:00Z,30.6671,-87.9365,1.229,8.43,1111122 
DISL,ioos:station:DISL:MHPA:1,2016-03-01T17:30:00Z,30.6671,-87.9365,1.248,8.62,1111122 
DISL,ioos:station:DISL:MHPA:1,2016-03-01T18:00:00Z,30.6671,-87.9365,1.281,8.49,1111122 
DISL,ioos:station:DISL:MHPA:1,2016-03-01T18:30:00Z,30.6671,-87.9365,1.312,8.72,1111122 
DISL,ioos:station:DISL:MHPA:1,2016-03-01T19:00:00Z,30.6671,-87.9365,1.34,8.52,1111122 
DISL,ioos:station:DISL:MHPA:1,2016-03-01T19:30:00Z,30.6671,-87.9365,1.364,8.61,1111122 
DISL,ioos:station:DISL:MHPA:1,2016-03-01T20:00:00Z,30.6671,-87.9365,1.378,8.74,1111122 
DISL,ioos:station:DISL:MHPA:1,2016-03-01T20:30:00Z,30.6671,-87.9365,1.416,8.55,1111122 
DISL,ioos:station:DISL:MHPA:1,2016-03-01T21:00:00Z,30.6671,-87.9365,1.431,8.65,1111122 
DISL,ioos:station:DISL:MHPA:1,2016-03-01T21:30:00Z,30.6671,-87.9365,1.43,8.66,1111122 
DISL,ioos:station:DISL:MHPA:1,2016-03-01T22:00:00Z,30.6671,-87.9365,1.427,8.55,1111122 
DISL,ioos:station:DISL:MHPA:1,2016-03-01T22:30:00Z,30.6671,-87.9365,1.432,8.42,1111122 
DISL,ioos:station:DISL:MHPA:1,2016-03-01T23:00:00Z,30.6671,-87.9365,1.427,8.33,1111122 
DISL,ioos:station:DISL:MHPA:1,2016-03-01T23:30:00Z,30.6671,-87.9365,1.415,8.73,1111122 
DISL,ioos:station:DISL:MHPA:1,2016-03-02T00:00:00Z,30.6671,-87.9365,1.405,8.76,1111122 
DISL,ioos:station:DISL:MHPA:1,2016-03-02T00:30:00Z,30.6671,-87.9365,1.386,8.72,1111122 
DISL,ioos:station:DISL:MHPA:1,2016-03-02T01:00:00Z,30.6671,-87.9365,1.358,8.9,1111122 
DISL,ioos:station:DISL:MHPA:1,2016-03-02T01:30:00Z,30.6671,-87.9365,1.343,8.87,1111122 
DISL,ioos:station:DISL:MHPA:1,2016-03-02T02:00:00Z,30.6671,-87.9365,1.327,8.87,1111122 
DISL,ioos:station:DISL:MHPA:1,2016-03-02T02:30:00Z,30.6671,-87.9365,1.311,8.88,1111122 
DISL,ioos:station:DISL:MHPA:1,2016-03-02T03:00:00Z,30.6671,-87.9365,1.317,8.76,1111122 
DISL,ioos:station:DISL:MHPA:1,2016-03-02T03:30:00Z,30.6671,-87.9365,1.309,8.45,1111122 
DISL,ioos:station:DISL:MHPA:1,2016-03-02T04:00:00Z,30.6671,-87.9365,1.28,8.34,1111122 
DISL,ioos:station:DISL:MHPA:1,2016-03-02T04:30:00Z,30.6671,-87.9365,1.278,8.66,1111122 
DISL,ioos:station:DISL:MHPA:1,2016-03-02T05:00:00Z,30.6671,-87.9365,1.257,8.73,1111122 
DISL,ioos:station:DISL:MHPA:1,2016-03-02T05:30:00Z,30.6671,-87.9365,1.233,8.61,1111122 
DISL,ioos:station:DISL:MHPA:1,2016-03-02T06:00:00Z,30.6671,-87.9365,1.212,8.65,1111122 
DISL,ioos:station:DISL:MHPA:1,2016-03-02T06:30:00Z,30.6671,-87.9365,1.174,8.52,1111122 
DISL,ioos:station:DISL:MHPA:1,2016-03-02T07:00:00Z,30.6671,-87.9365,1.121,8.46,1111122 
DISL,ioos:station:DISL:MHPA:1,2016-03-02T07:30:00Z,30.6671,-87.9365,1.078,8.6,1111122 
DISL,ioos:station:DISL:MHPA:1,2016-03-02T08:00:00Z,30.6671,-87.9365,1.057,8.53,1111122 
DISL,ioos:station:DISL:MHPA:1,2016-03-02T08:30:00Z,30.6671,-87.9365,1.041,8.49,1111122 
DISL,ioos:station:DISL:MHPA:1,2016-03-02T09:00:00Z,30.6671,-87.9365,1.023,8.39,1111122 
DISL,ioos:station:DISL:MHPA:1,2016-03-02T09:30:00Z,30.6671,-87.9365,0.991,8.23,1111122 
DISL,ioos:station:DISL:MHPA:1,2016-03-02T10:00:00Z,30.6671,-87.9365,0.954,8.31,1111122 
DISL,ioos:station:DISL:MHPA:1,2016-03-02T10:30:00Z,30.6671,-87.9365,0.92,8.44,1111122 
DISL,ioos:station:DISL:MHPA:1,2016-03-02T11:00:00Z,30.6671,-87.9365,0.908,8.23,1111122 
DISL,ioos:station:DISL:MHPA:1,2016-03-02T11:30:00Z,30.6671,-87.9365,0.9,8.22,1111122 
DISL,ioos:station:DISL:MHPA:1,2016-03-02T12:00:00Z,30.6671,-87.9365,0.892,8.02,1111122 
DISL,ioos:station:DISL:MHPA:1,2016-03-02T12:30:00Z,30.6671,-87.9365,0.877,8.13,1111122 
DISL,ioos:station:DISL:MHPA:1,2016-03-02T13:00:00Z,30.6671,-87.9365,0.862,8.26,1111122 
DISL,ioos:station:DISL:MHPA:1,2016-03-02T13:30:00Z,30.6671,-87.9365,0.847,8.27,1111122 
DISL,ioos:station:DISL:MHPA:1,2016-03-02T14:00:00Z,30.6671,-87.9365,0.828,8.21,1111122 
DISL,ioos:station:DISL:MHPA:1,2016-03-02T14:30:00Z,30.6671,-87.9365,0.812,8.2,1111122 
DISL,ioos:station:DISL:MHPA:1,2016-03-02T15:00:00Z,30.6671,-87.9365,0.806,8.31,1111122 
DISL,ioos:station:DISL:MHPA:1,2016-03-02T15:30:00Z,30.6671,-87.9365,0.812,8.44,1111122 
DISL,ioos:station:DISL:MHPA:1,2016-03-02T16:00:00Z,30.6671,-87.9365,0.826,8.48,1111122 
DISL,ioos:station:DISL:MHPA:1,2016-03-02T16:30:00Z,30.6671,-87.9365,0.843,8.53,1111122 
DISL,ioos:station:DISL:MHPA:1,2016-03-02T17:00:00Z,30.6671,-87.9365,0.882,8.65,1111122 
DISL,ioos:station:DISL:MHPA:1,2016-03-02T17:30:00Z,30.6671,-87.9365,0.953,8.6,1111122 
DISL,ioos:station:DISL:MHPA:1,2016-03-02T18:00:00Z,30.6671,-87.9365,0.991,8.6,1111122 
DISL,ioos:station:DISL:MHPA:1,2016-03-02T18:30:00Z,30.6671,-87.9365,1.014,8.89,1111122 
DISL,ioos:station:DISL:MHPA:1,2016-03-02T19:00:00Z,30.6671,-87.9365,1.045,8.94,1111122 
DISL,ioos:station:DISL:MHPA:1,2016-03-02T19:30:00Z,30.6671,-87.9365,1.049,8.91,1111122 
DISL,ioos:station:DISL:MHPA:1,2016-03-02T20:00:00Z,30.6671,-87.9365,1.063,8.84,1111122 
DISL,ioos:station:DISL:MHPA:1,2016-03-02T20:30:00Z,30.6671,-87.9365,1.11,9.07,1111122 
DISL,ioos:station:DISL:MHPA:1,2016-03-02T21:00:00Z,30.6671,-87.9365,1.165,9.08,1111122 
DISL,ioos:station:DISL:MHPA:1,2016-03-02T21:30:00Z,30.6671,-87.9365,1.179,9.18,1111122 
DISL,ioos:station:DISL:MHPA:1,2016-03-02T22:00:00Z,30.6671,-87.9365,1.191,9.12,1111122 
DISL,ioos:station:DISL:MHPA:1,2016-03-02T22:30:00Z,30.6671,-87.9365,1.21,9.02,1111122 
DISL,ioos:station:DISL:MHPA:1,2016-03-02T23:00:00Z,30.6671,-87.9365,1.237,9.21,1111122 
DISL,ioos:station:DISL:MHPA:1,2016-03-02T23:30:00Z,30.6671,-87.9365,1.238,8.88,1111122 
DISL,ioos:station:DISL:MHPA:1,2016-03-03T00:00:00Z,30.6671,-87.9365,1.231,8.83,1111122 
DISL,ioos:station:DISL:MHPA:1,2016-03-03T00:30:00Z,30.6671,-87.9365,1.225,8.76,1111122 
DISL,ioos:station:DISL:MHPA:1,2016-03-03T01:00:00Z,30.6671,-87.9365,1.222,8.7,1111122 
DISL,ioos:station:DISL:MHPA:1,2016-03-03T01:30:00Z,30.6671,-87.9365,1.212,8.66,1111122 
DISL,ioos:station:DISL:MHPA:1,2016-03-03T02:00:00Z,30.6671,-87.9365,1.197,8.39,1111122 
DISL,ioos:station:DISL:MHPA:1,2016-03-03T02:30:00Z,30.6671,-87.9365,1.188,8.59,1111122 
DISL,ioos:station:DISL:MHPA:1,2016-03-03T03:00:00Z,30.6671,-87.9365,1.171,8.52,1111122 
DISL,ioos:station:DISL:MHPA:1,2016-03-03T03:30:00Z,30.6671,-87.9365,1.16,8.51,1111122 
DISL,ioos:station:DISL:MHPA:1,2016-03-03T04:00:00Z,30.6671,-87.9365,1.145,8.56,1111122 
DISL,ioos:station:DISL:MHPA:1,2016-03-03T04:30:00Z,30.6671,-87.9365,1.128,8.47,1111122 
DISL,ioos:station:DISL:MHPA:1,2016-03-03T05:00:00Z,30.6671,-87.9365,1.105,8.36,1111122 
DISL,ioos:station:DISL:MHPA:1,2016-03-03T05:30:00Z,30.6671,-87.9365,1.084,8.32,1111122 
DISL,ioos:station:DISL:MHPA:1,2016-03-03T06:00:00Z,30.6671,-87.9365,1.067,8.38,1111122 
DISL,ioos:station:DISL:MHPA:1,2016-03-03T06:30:00Z,30.6671,-87.9365,1.051,8.35,1111122 
DISL,ioos:station:DISL:MHPA:1,2016-03-03T07:00:00Z,30.6671,-87.9365,1.038,8.31,1111122 
DISL,ioos:station:DISL:MHPA:1,2016-03-03T07:30:00Z,30.6671,-87.9365,1.027,8.18,1111122 
DISL,ioos:station:DISL:MHPA:1,2016-03-03T08:00:00Z,30.6671,-87.9365,1.018,8.44,1111122 
DISL,ioos:station:DISL:MHPA:1,2016-03-03T08:30:00Z,30.6671,-87.9365,1.003,8.25,1111122 
DISL,ioos:station:DISL:MHPA:1,2016-03-03T09:00:00Z,30.6671,-87.9365,0.986,8.34,1111122 
DISL,ioos:station:DISL:MHPA:1,2016-03-03T09:30:00Z,30.6671,-87.9365,0.97,8.34,1111122 
DISL,ioos:station:DISL:MHPA:1,2016-03-03T10:00:00Z,30.6671,-87.9365,0.96,8.34,1111122 
DISL,ioos:station:DISL:MHPA:1,2016-03-03T10:30:00Z,30.6671,-87.9365,0.955,8.36,1111122 
DISL,ioos:station:DISL:MHPA:1,2016-03-03T11:00:00Z,30.6671,-87.9365,0.955,8.3,1111122 
DISL,ioos:station:DISL:MHPA:1,2016-03-03T11:30:00Z,30.6671,-87.9365,0.96,8.25,1111122 
DISL,ioos:station:DISL:MHPA:1,2016-03-03T12:00:00Z,30.6671,-87.9365,0.966,8.28,1111122 
DISL,ioos:station:DISL:MHPA:1,2016-03-03T12:30:00Z,30.6671,-87.9365,0.969,8.3,1111122 
DISL,ioos:station:DISL:MHPA:1,2016-03-03T13:00:00Z,30.6671,-87.9365,0.974,8.29,1111122 
DISL,ioos:station:DISL:MHPA:1,2016-03-03T13:30:00Z,30.6671,-87.9365,0.986,8.31,1111122 
DISL,ioos:station:DISL:MHPA:1,2016-03-03T14:00:00Z,30.6671,-87.9365,0.999,8.19,1111122 
DISL,ioos:station:DISL:MHPA:1,2016-03-03T14:30:00Z,30.6671,-87.9365,1.024,8.12,1111122 
DISL,ioos:station:DISL:MHPA:1,2016-03-03T15:00:00Z,30.6671,-87.9365,1.075,8.18,1111122 
DISL,ioos:station:DISL:MHPA:1,2016-03-03T15:30:00Z,30.6671,-87.9365,1.106,8.1,1111122 
DISL,ioos:station:DISL:MHPA:1,2016-03-03T16:00:00Z,30.6671,-87.9365,1.138,8.19,1111122 
DISL,ioos:station:DISL:MHPA:1,2016-03-03T16:30:00Z,30.6671,-87.9365,1.173,8.54,1111122 
DISL,ioos:station:DISL:MHPA:1,2016-03-03T17:00:00Z,30.6671,-87.9365,1.186,8.81,1111122 
DISL,ioos:station:DISL:MHPA:1,2016-03-03T17:30:00Z,30.6671,-87.9365,1.219,8.79,1111122 
DISL,ioos:station:DISL:MHPA:1,2016-03-03T18:00:00Z,30.6671,-87.9365,1.265,8.8,1111122 
DISL,ioos:station:DISL:MHPA:1,2016-03-03T18:30:00Z,30.6671,-87.9365,1.323,8.87,1111122 
DISL,ioos:station:DISL:MHPA:1,2016-03-03T19:00:00Z,30.6671,-87.9365,1.363,8.94,1111122 
DISL,ioos:station:DISL:MHPA:1,2016-03-03T19:30:00Z,30.6671,-87.9365,1.37,8.9,1111122 
DISL,ioos:station:DISL:MHPA:1,2016-03-03T20:00:00Z,30.6671,-87.9365,1.36,8.86,1111122 
DISL,ioos:station:DISL:MHPA:1,2016-03-03T20:30:00Z,30.6671,-87.9365,1.33,8.75,1111122 
DISL,ioos:station:DISL:MHPA:1,2016-03-03T21:00:00Z,30.6671,-87.9365,1.331,8.92,1111122 
DISL,ioos:station:DISL:MHPA:1,2016-03-03T21:30:00Z,30.6671,-87.9365,1.344,8.93,1111122 
DISL,ioos:station:DISL:MHPA:1,2016-03-03T22:00:00Z,30.6671,-87.9365,1.371,8.99,1111122 
DISL,ioos:station:DISL:MHPA:1,2016-03-03T22:30:00Z,30.6671,-87.9365,1.382,9.15,1111122 
DISL,ioos:station:DISL:MHPA:1,2016-03-03T23:00:00Z,30.6671,-87.9365,1.439,9.1,1111122 
DISL,ioos:station:DISL:MHPA:1,2016-03-03T23:30:00Z,30.6671,-87.9365,1.54,9.09,1111122 
DISL,ioos:station:DISL:MHPA:1,2016-03-04T00:00:00Z,30.6671,-87.9365,1.6,9.17,1111122 
DISL,ioos:station:DISL:MHPA:1,2016-03-04T00:30:00Z,30.6671,-87.9365,1.596,9.25,1111122 
DISL,ioos:station:DISL:MHPA:1,2016-03-04T01:00:00Z,30.6671,-87.9365,1.572,9.14,1111122 
DISL,ioos:station:DISL:MHPA:1,2016-03-04T01:30:00Z,30.6671,-87.9365,1.598,9.23,1111122 
DISL,ioos:station:DISL:MHPA:1,2016-03-04T02:00:00Z,30.6671,-87.9365,1.537,9.17,1111122 
DISL,ioos:station:DISL:MHPA:1,2016-03-04T02:30:00Z,30.6671,-87.9365,1.472,9.22,1111122 
DISL,ioos:station:DISL:MHPA:1,2016-03-04T03:00:00Z,30.6671,-87.9365,1.428,9.15,1111122 
DISL,ioos:station:DISL:MHPA:1,2016-03-04T03:30:00Z,30.6671,-87.9365,1.389,9.01,1111122 
DISL,ioos:station:DISL:MHPA:1,2016-03-04T04:00:00Z,30.6671,-87.9365,1.403,9.0,1111122 
DISL,ioos:station:DISL:MHPA:1,2016-03-04T04:30:00Z,30.6671,-87.9365,1.339,8.97,1111122 
DISL,ioos:station:DISL:MHPA:1,2016-03-04T05:00:00Z,30.6671,-87.9365,1.295,8.92,1111122 
DISL,ioos:station:DISL:MHPA:1,2016-03-04T05:30:00Z,30.6671,-87.9365,1.231,8.87,1111122 
DISL,ioos:station:DISL:MHPA:1,2016-03-04T06:00:00Z,30.6671,-87.9365,1.197,8.77,1111122 
DISL,ioos:station:DISL:MHPA:1,2016-03-04T06:30:00Z,30.6671,-87.9365,1.171,8.74,1111122 
DISL,ioos:station:DISL:MHPA:1,2016-03-04T07:00:00Z,30.6671,-87.9365,1.117,8.75,1111122 
DISL,ioos:station:DISL:MHPA:1,2016-03-04T07:30:00Z,30.6671,-87.9365,1.075,8.62,1111122 
DISL,ioos:station:DISL:MHPA:1,2016-03-04T08:00:00Z,30.6671,-87.9365,1.049,8.61,1111122 
DISL,ioos:station:DISL:MHPA:1,2016-03-04T08:30:00Z,30.6671,-87.9365,1.018,8.7,1111122 
DISL,ioos:station:DISL:MHPA:1,2016-03-04T09:00:00Z,30.6671,-87.9365,0.988,8.82,1111122 
DISL,ioos:station:DISL:MHPA:1,2016-03-04T09:30:00Z,30.6671,-87.9365,0.963,8.65,1111122 
DISL,ioos:station:DISL:MHPA:1,2016-03-04T10:00:00Z,30.6671,-87.9365,0.95,8.76,1111122 
DISL,ioos:station:DISL:MHPA:1,2016-03-04T10:30:00Z,30.6671,-87.9365,0.938,8.75,1111122 
DISL,ioos:station:DISL:MHPA:1,2016-03-04T11:00:00Z,30.6671,-87.9365,0.92,8.53,1111122 
DISL,ioos:station:DISL:MHPA:1,2016-03-04T11:30:00Z,30.6671,-87.9365,0.901,8.31,1111122 
DISL,ioos:station:DISL:MHPA:1,2016-03-04T12:00:00Z,30.6671,-87.9365,0.885,8.43,1111122 
DISL,ioos:station:DISL:MHPA:1,2016-03-04T12:30:00Z,30.6671,-87.9365,0.871,8.37,1111122 
DISL,ioos:station:DISL:MHPA:1,2016-03-04T13:00:00Z,30.6671,-87.9365,0.86,8.29,1111122 
DISL,ioos:station:DISL:MHPA:1,2016-03-04T13:30:00Z,30.6671,-87.9365,0.854,8.57,1111122 
DISL,ioos:station:DISL:MHPA:1,2016-03-04T14:00:00Z,30.6671,-87.9365,0.855,8.31,1111122 
DISL,ioos:station:DISL:MHPA:1,2016-03-04T14:30:00Z,30.6671,-87.9365,0.855,8.26,1111122 
DISL,ioos:station:DISL:MHPA:1,2016-03-04T15:00:00Z,30.6671,-87.9365,0.847,8.54,1111122 
DISL,ioos:station:DISL:MHPA:1,2016-03-04T15:30:00Z,30.6671,-87.9365,0.844,8.63,1111122 
DISL,ioos:station:DISL:MHPA:1,2016-03-04T16:00:00Z,30.6671,-87.9365,0.843,8.58,1111122 
DISL,ioos:station:DISL:MHPA:1,2016-03-04T16:30:00Z,30.6671,-87.9365,0.843,8.63,1111122 
DISL,ioos:station:DISL:MHPA:1,2016-03-04T17:00:00Z,30.6671,-87.9365,0.851,8.76,1111122 
DISL,ioos:station:DISL:MHPA:1,2016-03-04T17:30:00Z,30.6671,-87.9365,0.873,8.9,1111122 
DISL,ioos:station:DISL:MHPA:1,2016-03-04T18:00:00Z,30.6671,-87.9365,0.909,8.96,1111122 
DISL,ioos:station:DISL:MHPA:1,2016-03-04T18:30:00Z,30.6671,-87.9365,0.939,9.04,1111122 
DISL,ioos:station:DISL:MHPA:1,2016-03-04T19:00:00Z,30.6671,-87.9365,0.939,9.04,1111122 
DISL,ioos:station:DISL:MHPA:1,2016-03-04T19:30:00Z,30.6671,-87.9365,0.986,9.35,1111122 
DISL,ioos:station:DISL:MHPA:1,2016-03-04T20:00:00Z,30.6671,-87.9365,1.001,9.31,1111122 
DISL,ioos:station:DISL:MHPA:1,2016-03-04T20:30:00Z,30.6671,-87.9365,1.011,9.19,1111122 
DISL,ioos:station:DISL:MHPA:1,2016-03-04T21:00:00Z,30.6671,-87.9365,1.049,9.5,1111122 
DISL,ioos:station:DISL:MHPA:1,2016-03-04T21:30:00Z,30.6671,-87.9365,1.118,9.56,1111122 
DISL,ioos:station:DISL:MHPA:1,2016-03-04T22:00:00Z,30.6671,-87.9365,1.144,9.47,1111122 
DISL,ioos:station:DISL:MHPA:1,2016-03-04T22:30:00Z,30.6671,-87.9365,1.193,9.47,1111122 
DISL,ioos:station:DISL:MHPA:1,2016-03-04T23:00:00Z,30.6671,-87.9365,1.244,9.55,1111122 
DISL,ioos:station:DISL:MHPA:1,2016-03-04T23:30:00Z,30.6671,-87.9365,1.269,9.45,1111122 
DISL,ioos:station:DISL:MHPA:1,2016-03-05T00:00:00Z,30.6671,-87.9365,1.286,9.32,1111122 
DISL,ioos:station:DISL:MHPA:1,2016-03-05T00:30:00Z,30.6671,-87.9365,1.291,9.34,1111122 
DISL,ioos:station:DISL:MHPA:1,2016-03-05T01:00:00Z,30.6671,-87.9365,1.315,9.13,1111122 
DISL,ioos:station:DISL:MHPA:1,2016-03-05T01:30:00Z,30.6671,-87.9365,1.299,8.98,1111122 
DISL,ioos:station:DISL:MHPA:1,2016-03-05T02:00:00Z,30.6671,-87.9365,1.313,9.14,1111122 
DISL,ioos:station:DISL:MHPA:1,2016-03-05T02:30:00Z,30.6671,-87.9365,1.308,9.05,1111122 
DISL,ioos:station:DISL:MHPA:1,2016-03-05T03:00:00Z,30.6671,-87.9365,1.297,9.07,1111122 
DISL,ioos:station:DISL:MHPA:1,2016-03-05T03:30:00Z,30.6671,-87.9365,1.281,9.04,1111122 
DISL,ioos:station:DISL:MHPA:1,2016-03-05T04:00:00Z,30.6671,-87.9365,1.259,8.96,1111122 
DISL,ioos:station:DISL:MHPA:1,2016-03-05T04:30:00Z,30.6671,-87.9365,1.23,8.94,1111122 
DISL,ioos:station:DISL:MHPA:1,2016-03-05T05:00:00Z,30.6671,-87.9365,1.199,8.97,1111122 
DISL,ioos:station:DISL:MHPA:1,2016-03-05T05:30:00Z,30.6671,-87.9365,1.172,9.07,1111122 
DISL,ioos:station:DISL:MHPA:1,2016-03-05T06:00:00Z,30.6671,-87.9365,1.146,8.98,1111122 
DISL,ioos:station:DISL:MHPA:1,2016-03-05T06:30:00Z,30.6671,-87.9365,1.115,9.03,1111122 
DISL,ioos:station:DISL:MHPA:1,2016-03-05T07:00:00Z,30.6671,-87.9365,1.084,9.0,1111122 
DISL,ioos:station:DISL:MHPA:1,2016-03-05T07:30:00Z,30.6671,-87.9365,1.065,8.96,1111122 
DISL,ioos:station:DISL:MHPA:1,2016-03-05T08:00:00Z,30.6671,-87.9365,1.048,8.86,1111122 
DISL,ioos:station:DISL:MHPA:1,2016-03-05T08:30:00Z,30.6671,-87.9365,1.031,8.85,1111122 
DISL,ioos:station:DISL:MHPA:1,2016-03-05T09:00:00Z,30.6671,-87.9365,1.008,8.79,1111122 
DISL,ioos:station:DISL:MHPA:1,2016-03-05T09:30:00Z,30.6671,-87.9365,0.986,8.68,1111122 
DISL,ioos:station:DISL:MHPA:1,2016-03-05T10:00:00Z,30.6671,-87.9365,0.967,8.67,1111122 
DISL,ioos:station:DISL:MHPA:1,2016-03-05T10:30:00Z,30.6671,-87.9365,0.948,8.53,1111122 
DISL,ioos:station:DISL:MHPA:1,2016-03-05T11:00:00Z,30.6671,-87.9365,0.93,8.47,1111122 
DISL,ioos:station:DISL:MHPA:1,2016-03-05T11:30:00Z,30.6671,-87.9365,0.914,8.58,1111122 
DISL,ioos:station:DISL:MHPA:1,2016-03-05T12:00:00Z,30.6671,-87.9365,0.903,8.59,1111122 
DISL,ioos:station:DISL:MHPA:1,2016-03-05T12:30:00Z,30.6671,-87.9365,0.894,8.44,1111122 
DISL,ioos:station:DISL:MHPA:1,2016-03-05T13:00:00Z,30.6671,-87.9365,0.886,8.48,1111122 
DISL,ioos:station:DISL:MHPA:1,2016-03-05T13:30:00Z,30.6671,-87.9365,0.882,8.4,1111122 
DISL,ioos:station:DISL:MHPA:1,2016-03-05T14:00:00Z,30.6671,-87.9365,0.885,8.08,1111122 
DISL,ioos:station:DISL:MHPA:1,2016-03-05T14:30:00Z,30.6671,-87.9365,0.891,8.5,1111122 
DISL,ioos:station:DISL:MHPA:1,2016-03-05T15:00:00Z,30.6671,-87.9365,0.895,8.75,1111122 
DISL,ioos:station:DISL:MHPA:1,2016-03-05T15:30:00Z,30.6671,-87.9365,0.902,8.73,1111122 
DISL,ioos:station:DISL:MHPA:1,2016-03-05T16:00:00Z,30.6671,-87.9365,0.921,8.69,1111122 
DISL,ioos:station:DISL:MHPA:1,2016-03-05T16:30:00Z,30.6671,-87.9365,0.939,9.22,1111122 
DISL,ioos:station:DISL:MHPA:1,2016-03-05T17:00:00Z,30.6671,-87.9365,0.958,9.28,1111122 
DISL,ioos:station:DISL:MHPA:1,2016-03-05T17:30:00Z,30.6671,-87.9365,0.993,9.3,1111122 
DISL,ioos:station:DISL:MHPA:1,2016-03-05T18:00:00Z,30.6671,-87.9365,1.027,9.35,1111122 
DISL,ioos:station:DISL:MHPA:1,2016-03-05T18:30:00Z,30.6671,-87.9365,1.052,9.53,1111122 
DISL,ioos:station:DISL:MHPA:1,2016-03-05T19:00:00Z,30.6671,-87.9365,1.078,9.43,1111122 
DISL,ioos:station:DISL:MHPA:1,2016-03-05T19:30:00Z,30.6671,-87.9365,1.106,9.54,1111122 
DISL,ioos:station:DISL:MHPA:1,2016-03-05T20:00:00Z,30.6671,-87.9365,1.131,9.53,1111122 
DISL,ioos:station:DISL:MHPA:1,2016-03-05T20:30:00Z,30.6671,-87.9365,1.151,9.65,1111122 
DISL,ioos:station:DISL:MHPA:1,2016-03-05T21:00:00Z,30.6671,-87.9365,1.169,9.62,1111122 
DISL,ioos:station:DISL:MHPA:1,2016-03-05T21:30:00Z,30.6671,-87.9365,1.193,9.46,1111122 
DISL,ioos:station:DISL:MHPA:1,2016-03-05T22:00:00Z,30.6671,-87.9365,1.23,9.57,1111122 
DISL,ioos:station:DISL:MHPA:1,2016-03-05T22:30:00Z,30.6671,-87.9365,1.263,9.38,1111122 
DISL,ioos:station:DISL:MHPA:1,2016-03-05T23:00:00Z,30.6671,-87.9365,1.311,9.4,1111122 
DISL,ioos:station:DISL:MHPA:1,2016-03-05T23:30:00Z,30.6671,-87.9365,1.34,9.42,1111122 
DISL,ioos:station:DISL:MHPA:1,2016-03-06T00:00:00Z,30.6671,-87.9365,1.365,9.47,1111122 
DISL,ioos:station:DISL:MHPA:1,2016-03-06T00:30:00Z,30.6671,-87.9365,1.368,9.28,1111122 
DISL,ioos:station:DISL:MHPA:1,2016-03-06T01:00:00Z,30.6671,-87.9365,1.371,9.33,1111122 
DISL,ioos:station:DISL:MHPA:1,2016-03-06T01:30:00Z,30.6671,-87.9365,1.365,9.87,1111122 
DISL,ioos:station:DISL:MHPA:1,2016-03-06T02:00:00Z,30.6671,-87.9365,1.358,9.29,1111122 
DISL,ioos:station:DISL:MHPA:1,2016-03-06T02:30:00Z,30.6671,-87.9365,1.337,9.16,1111122 
DISL,ioos:station:DISL:MHPA:1,2016-03-06T03:00:00Z,30.6671,-87.9365,1.326,9.14,1111122 
DISL,ioos:station:DISL:MHPA:1,2016-03-06T03:30:00Z,30.6671,-87.9365,1.313,9.13,1111122 
DISL,ioos:station:DISL:MHPA:1,2016-03-06T04:00:00Z,30.6671,-87.9365,1.296,9.11,1111122 
DISL,ioos:station:DISL:MHPA:1,2016-03-06T04:30:00Z,30.6671,-87.9365,1.274,9.11,1111122 
DISL,ioos:station:DISL:MHPA:1,2016-03-06T05:00:00Z,30.6671,-87.9365,1.251,8.99,1111122 
DISL,ioos:station:DISL:MHPA:1,2016-03-06T05:30:00Z,30.6671,-87.9365,1.223,8.99,1111122 
DISL,ioos:station:DISL:MHPA:1,2016-03-06T06:00:00Z,30.6671,-87.9365,1.19,9.0,1111122 
DISL,ioos:station:DISL:MHPA:1,2016-03-06T06:30:00Z,30.6671,-87.9365,1.161,8.96,1111122 
DISL,ioos:station:DISL:MHPA:1,2016-03-06T07:00:00Z,30.6671,-87.9365,1.128,8.89,1111122 
DISL,ioos:station:DISL:MHPA:1,2016-03-06T07:30:00Z,30.6671,-87.9365,1.099,8.83,1111122 
DISL,ioos:station:DISL:MHPA:1,2016-03-06T08:00:00Z,30.6671,-87.9365,1.072,8.92,1111122 
DISL,ioos:station:DISL:MHPA:1,2016-03-06T08:30:00Z,30.6671,-87.9365,1.043,8.86,1111122 
DISL,ioos:station:DISL:MHPA:1,2016-03-06T09:00:00Z,30.6671,-87.9365,1.015,8.81,1111122 
DISL,ioos:station:DISL:MHPA:1,2016-03-06T09:30:00Z,30.6671,-87.9365,0.991,8.86,1111122 
DISL,ioos:station:DISL:MHPA:1,2016-03-06T10:00:00Z,30.6671,-87.9365,0.967,8.85,1111122 
DISL,ioos:station:DISL:MHPA:1,2016-03-06T10:30:00Z,30.6671,-87.9365,0.944,8.82,1111122 
DISL,ioos:station:DISL:MHPA:1,2016-03-06T11:00:00Z,30.6671,-87.9365,0.921,8.72,1111122 
DISL,ioos:station:DISL:MHPA:1,2016-03-06T11:30:00Z,30.6671,-87.9365,0.9,8.6,1111122 
DISL,ioos:station:DISL:MHPA:1,2016-03-06T12:00:00Z,30.6671,-87.9365,0.881,8.55,1111122 
DISL,ioos:station:DISL:MHPA:1,2016-03-06T12:30:00Z,30.6671,-87.9365,0.863,8.29,1111122 
DISL,ioos:station:DISL:MHPA:1,2016-03-06T13:00:00Z,30.6671,-87.9365,0.849,8.36,1111122 
DISL,ioos:station:DISL:MHPA:1,2016-03-06T13:30:00Z,30.6671,-87.9365,0.838,8.58,1111122 
DISL,ioos:station:DISL:MHPA:1,2016-03-06T14:00:00Z,30.6671,-87.9365,0.832,8.65,1111122 
DISL,ioos:station:DISL:MHPA:1,2016-03-06T14:30:00Z,30.6671,-87.9365,0.828,8.72,1111122 
DISL,ioos:station:DISL:MHPA:1,2016-03-06T15:00:00Z,30.6671,-87.9365,0.825,8.58,1111122 
DISL,ioos:station:DISL:MHPA:1,2016-03-06T15:30:00Z,30.6671,-87.9365,0.822,8.5,1111122 